Starlink 32870

operational
NORAD ID: 63018 Int'l Des: 2025-032 Owner: SPXS Country: US Constellation: starlink
LEOCIRCULAR

Über Starlink 32870

Beschreibung wird geladen...

Live-Position

3D-Globus wird geladen...

Nächste Überflüge

Höhenverlauf

Altitude vs Time

uPlot chart will show altitude changes over time

Zweizeiliger Elementsatz

1 63018U 25032P 25306.47697662 .00026605 00000-0 97263-3 0 9992
2 63018 43.0024 334.5524 0002433 47.2217 312.8839 15.27586203 41169
Epoch: 2. Nov. 2025 • Age: 21 hours

Aktueller Status

Höhe 494.0 km
Geschwindigkeit 7.62 km/s
Subsatellitenpunkt -33.74°S, 19.05°E
Startdatum 15. Feb. 2025
Alter 0.7 years
Typ internet

Technische Details

Klassifizierung Payload
Masse 730.00 kg
Trockenmasse 700.00 kg
Gesamtmasse 730.00 kg
Länge 0.30 m
Durchmesser 4.10 m
Spannweite 29.00 m
Form Box + pan
Hersteller SPXS
Bus-Typ Starlink V2M
Phasenstatus In Orbit
Besitzer/Staat SPXS/US

Große Konstellationen

Loading constellations...